User: anonymous   Login
Location: Wien
(48.2082°N, 16.3738°E)
Time: 02:07:18
(UTC+02:00)
Language:

MOZHAYETS 4 - Orbit

View from above orbital plane
View from above orbital plane
View from above satellite
View from above satellite

Ground track
Ground track

The orbit data is extracted from the following two-line orbital elements,

1 27939U 03042A   19289.76833122  .00000076  00000-0  22144-4 0  9990
2 27939  98.0580  63.3649 0013832  51.4745 308.7701 14.66809658858141
Epoch (UTC): 16 October 2019 18:26:23
Eccentricity: 0.0013832
inclination: 98.0580°
perigee height: 661 km
apogee height: 681 km
right ascension of ascending node: 63.3649°
argument of perigee: 51.4745°
revolutions per day: 14.66809658
mean anomaly at epoch: 308.7701°
orbit number at epoch: 85814

The dashed part of the orbit path shows where the satellite is in the earth's shadow,  

DLR